• Join FlightAware (Why Join?)
  • Login
  • US Flag 
Trick or treat! (Boo!!) 
06:53AM EDT


 

Airport Tracker/Info


-or-


 

Live Flight TrackerFlight Track Log ✈ N77SD ✈ 08-May-2013 ✈ KRDU - KILM

Flight Track Log - Related Links

Times and Time Zones

All times are in EDT time to prevent confusion due to time zone crossing. See the N77SD flight status page for this flight to view local times or setup timezone preferences in your user account.

Time Position Orientation Groundspeed Altitude Reporting Facility
EDT Latitude Longitude Course Direction KTS MPH feet Rate Location/Type
06:47AM 35.8564 -78.8058 166° South 143 165 1,200  Level Washington Center
06:48AM 35.8272 -78.7969 166° South 162 186 2,500 1,980 Climbing Washington Center
06:49AM 35.7861 -78.7772 159° South 159 183 4,600 2,160 Climbing Washington Center
06:50AM 35.7428 -78.7550 157° South 153 176 6,900 1,200 Climbing Washington Center
06:51AM 35.7039 -78.7306 153° Southeast 204 235 7,000  Climbing Washington Center
06:52AM 35.6608 -78.7033 153° Southeast 208 239 7,000  Level Washington Center
06:53AM 35.6094 -78.6731 154° Southeast 205 236 7,000  Level Washington Center
06:54AM 35.5539 -78.6428 156° South 206 237 7,000  Level Washington Center
06:55AM 35.5067 -78.6156 155° Southeast 204 235 7,000  Level Washington Center
06:56AM 35.4508 -78.5856 156° South 201 231 7,000  Level Washington Center
06:57AM 35.4036 -78.5608 157° South 199 229 7,000  Level Washington Center
06:58AM 35.3542 -78.5283 152° Southeast 195 224 7,000  Level Washington Center
06:59AM 35.3028 -78.5011 157° South 193 222 7,000  Level Washington Center
07:00AM 35.2533 -78.4739 156° South 195 224 7,000  Level Washington Center
07:01AM 35.1997 -78.4439 155° Southeast 199 229 7,000  Level Washington Center
07:02AM 35.1525 -78.4142 153° Southeast 204 235 7,000  Level Washington Center
07:03AM 35.0969 -78.3844 156° South 205 236 7,000  Level Washington Center
07:05AM 35.0302 -78.3250 144° Southeast  Level FlightAware Approximate
07:12AM 34.7006 -78.1277 156° South  Level FlightAware Approximate
07:13AM 34.6530 -78.1016 156° South  Level FlightAware Approximate
07:14AM 34.6036 -78.0851 158° South  Level FlightAware Approximate
07:15AM 34.5553 -78.0610 158° South  Level FlightAware Approximate
07:16AM 34.5071 -78.0369 158° South  Level FlightAware Approximate
07:17AM 34.4622 -78.0061 158° South  Level FlightAware Approximate
07:18AM 34.4140 -77.9818 154° Southeast  Level FlightAware Approximate
07:19AM 34.3673 -77.9537 154° Southeast  Level FlightAware Approximate